Simultaneous Nadir Overpasses (SNOs) Predictions

Prediction of SNOs between GOES-16 and METOP-C Satellite Orbit:

Table of predicted SNOs for the next 14.0 days since TLE Epoch: 1/24/2025
Index Date Time (GOES-16) GOES-16 Lat,Lon METOP-C Lat,Lon Distance(km) Time Diff (sec)
1 01/25/2025 14:31:48 -0.02, -75.22 -0.13, -74.85 42.78 80
2 01/27/2025 02:50:48 0.01, -75.18 -0.92, -79.44 484.84 80
3 01/28/2025 02:27:28 0.00, -75.19 0.18, -74.45 84.69 80
4 01/29/2025 14:46:20 -0.00, -75.24 0.86, -79.00 429.87 80
5 01/30/2025 14:28:20 -0.00, -75.24 -0.25, -74.01 140.16 80
6 02/01/2025 02:47:20 0.00, -75.22 -0.78, -78.60 386.33 80
7 02/02/2025 02:24:02 -0.00, -75.23 0.39, -73.62 184.02 80
8 02/03/2025 14:42:53 0.00, -75.29 0.63, -78.18 329.38 80
9 02/04/2025 14:24:54 -0.00, -75.30 -0.49, -73.19 241.32 80
10 02/06/2025 02:43:53 -0.00, -75.28 -0.58, -77.77 284.27 80
11 02/07/2025 02:20:34 -0.00, -75.30 0.54, -72.78 286.45 80
